Powrót do katalogu

CZ-6A DEB

AktywnySSO
NORAD 55540·DEBRIS·🇨🇳 China

Wystrzelony Nov 11, 2022 z Taiyuan Satellite Launch Center

Loading…

Następne Przeloty (najbliższe 24 godziny)

TLE

ŚwieżeSource: Space-Track

Epoka: Sep 14, 2026, 00:24 UTC

1 55540U 22151YN  26257.01720542  .00000854  00000-0  29104-3 0  9999
2 55540  98.6436 287.8250 0101969 147.8234 212.9229 14.36121423195238

Śledź CZ-6A DEB w czasie rzeczywistym z AllMySat

Download on the App Store